Weather in Saint Paul's Bay

Malta     35°56′41″N   14°23′13″E
temp.,
°C
wind,
m/s
gust,
m/s
humid.,
%
clouds,
%
prec.,
mm/h
press.,
hPa
HPBL,
m
18 may, tue
tue1823:00+20wnw45750 0.0 101551
02:00+19nw59820 0.0 1014146
05:00+19nw598246 0.0 1014148
08:00+20wnw7117795 0.0 1016207
11:00+20nw710755 0.0 1017268
14:00+20nw67735 0.0 1016259
17:00+20nw45760 0.0 1016219
20:00+19nw33810 0.0 101646
19 may, wed
wed1923:00+19w22765 0.0 101717
02:00+19w22735 0.0 101616
05:00+19w347013 0.0 101566
08:00+19wnw68736 0.0 1016204
11:00+20nw68725 0.0 1017252
14:00+20nw68690 0.0 1016257
17:00+20wnw710730 0.0 1015211
20:00+19wnw712770 0.0 1015230
20 may, thu
thu2023:00+19wnw34795 0.0 101662
02:00+19wnw6981100 0.0 1015241
05:00+19wnw8138290 0.0 1015357
08:00+19wnw10147897 0.0 1016436
11:00+19nw1214739 0.0 1016562
14:00+19nw1214730 0.0 1016513
17:00+18wnw1315755 0.0 1016582
20:00+18wnw12167492 0.0 1016583
21 may, fri
fri2123:00+19nnw12137687 0.0 1017642
02:00+18nne7875100 0.0 1018560
05:00+18ne3571100 0.0 1019535
08:00+18ene34725 0.0 1020522
11:00+19e33675 0.0 1021571
14:00+19se226253 0.0 1021474
17:00+20sw22617 0.0 1021536
20:00+19sw3370100 0.0 102192
22 may, sat
sat2223:00+18ssw347423 0.0 1021209
02:00+18ssw34745 0.0 1020248
05:00+18ssw45755 0.0 1019317
08:00+19ssw45715 0.0 1019431
11:00+21s44620 0.0 1020217
14:00+21s67615 0.0 1019271
17:00+21s56658 0.0 1018190
20:00+19sse56774 0.0 1017190